Time,TemperatureF,DewpointF,PressureIn,WindDirection,WindDirectionDegrees,WindSpeedMPH,WindSpeedGustMPH,Humidity,HourlyPrecipIn,Conditions,Clouds,dailyrainin,SoftwareType,DateUTC
2013-01-18 00:02:00,24.0,11.0,-100.00,ENE,58,1.0,4.0,57,-99.99,,,-99.99,,2013-01-18 08:02:00,
2013-01-18 00:11:00,23.0,11.0,-100.00,NE,49,1.0,3.0,60,-99.99,,,-99.99,,2013-01-18 08:11:00,
2013-01-18 00:22:00,22.0,11.0,-100.00,NNE,32,1.0,3.0,61,-99.99,,,-99.99,,2013-01-18 08:22:00,
2013-01-18 00:32:00,22.0,11.0,-100.00,NNE,27,2.0,3.0,62,-99.99,,,-99.99,,2013-01-18 08:32:00,
2013-01-18 00:42:00,22.0,10.0,-100.00,NNE,31,3.0,6.0,59,-99.99,,,-99.99,,2013-01-18 08:42:00,
2013-01-18 00:52:00,22.0,11.0,-100.00,NNE,31,3.0,6.0,61,-99.99,,,-99.99,,2013-01-18 08:52:00,
2013-01-18 01:02:00,22.0,11.0,-100.00,NNE,31,3.0,5.0,61,-99.99,,,-99.99,,2013-01-18 09:02:00,
2013-01-18 01:12:00,21.0,10.0,-100.00,NE,34,3.0,6.0,61,-99.99,,,-99.99,,2013-01-18 09:12:00,
2013-01-18 01:22:00,22.0,11.0,-100.00,NE,42,2.0,4.0,62,-99.99,,,-99.99,,2013-01-18 09:22:00,
2013-01-18 01:32:00,22.0,11.0,-100.00,NE,42,2.0,4.0,62,-99.99,,,-99.99,,2013-01-18 09:32:00,
2013-01-18 01:42:00,21.0,10.0,-100.00,ENE,65,1.0,3.0,62,-99.99,,,-99.99,,2013-01-18 09:42:00,
2013-01-18 01:52:00,21.0,10.0,-100.00,NE,41,2.0,4.0,62,-99.99,,,-99.99,,2013-01-18 09:52:00,
2013-01-18 02:02:00,21.0,10.0,-100.00,NE,42,2.0,4.0,63,-99.99,,,-99.99,,2013-01-18 10:02:00,
2013-01-18 02:12:00,20.0,9.0,-100.00,NE,34,2.0,4.0,63,-99.99,,,-99.99,,2013-01-18 10:12:00,
2013-01-18 02:22:00,20.0,9.0,-100.00,NE,35,2.0,4.0,62,-99.99,,,-99.99,,2013-01-18 10:22:00,
2013-01-18 02:32:00,20.0,9.0,-100.00,NNE,32,2.0,5.0,62,-99.99,,,-99.99,,2013-01-18 10:32:00,
2013-01-18 02:42:00,20.0,10.0,-100.00,NNE,28,3.0,4.0,64,-99.99,,,-99.99,,2013-01-18 10:42:00,
2013-01-18 02:52:00,19.0,10.0,-100.00,NNE,28,3.0,4.0,66,-99.99,,,-99.99,,2013-01-18 10:52:00,
2013-01-18 03:02:00,19.0,9.0,-100.00,NNE,28,3.0,5.0,65,-99.99,,,-99.99,,2013-01-18 11:02:00,
2013-01-18 03:12:00,20.0,9.0,-100.00,NE,34,3.0,5.0,62,-99.99,,,-99.99,,2013-01-18 11:12:00,
2013-01-18 03:22:00,19.0,8.0,-100.00,NNE,32,3.0,5.0,62,-99.99,,,-99.99,,2013-01-18 11:22:00,
2013-01-18 03:32:00,19.0,8.0,-100.00,NNE,32,3.0,5.0,62,-99.99,,,-99.99,,2013-01-18 11:32:00,
2013-01-18 03:42:00,19.0,8.0,-100.00,NNE,27,3.0,5.0,62,-99.99,,,-99.99,,2013-01-18 11:42:00,
2013-01-18 03:52:00,19.0,8.0,-100.00,NE,38,2.0,5.0,62,-99.99,,,-99.99,,2013-01-18 11:52:00,
2013-01-18 04:02:00,19.0,9.0,-100.00,NNE,30,3.0,5.0,63,-99.99,,,-99.99,,2013-01-18 12:02:00,
2013-01-18 04:12:00,19.0,8.0,-100.00,NE,37,2.0,3.0,63,-99.99,,,-99.99,,2013-01-18 12:12:00,
2013-01-18 04:22:00,18.0,8.0,-100.00,NNE,28,3.0,5.0,63,-99.99,,,-99.99,,2013-01-18 12:22:00,
2013-01-18 04:32:00,18.0,8.0,-100.00,NNE,28,3.0,5.0,63,-99.99,,,-99.99,,2013-01-18 12:32:00,
2013-01-18 04:42:00,18.0,8.0,-100.00,NNE,24,3.0,5.0,64,-99.99,,,-99.99,,2013-01-18 12:42:00,
2013-01-18 04:52:00,18.0,8.0,-100.00,NE,42,2.0,3.0,63,-99.99,,,-99.99,,2013-01-18 12:52:00,
2013-01-18 05:02:00,18.0,8.0,-100.00,NE,44,1.0,3.0,63,-99.99,,,-99.99,,2013-01-18 13:02:00,
2013-01-18 05:12:00,18.0,8.0,-100.00,NNE,31,3.0,4.0,65,-99.99,,,-99.99,,2013-01-18 13:12:00,
2013-01-18 05:22:00,18.0,8.0,-100.00,NE,35,2.0,4.0,64,-99.99,,,-99.99,,2013-01-18 13:22:00,
2013-01-18 05:33:00,18.0,8.0,-100.00,NE,35,2.0,4.0,64,-99.99,,,-99.99,,2013-01-18 13:33:00,
2013-01-18 05:42:00,17.0,7.0,-100.00,NE,34,2.0,3.0,65,-99.99,,,-99.99,,2013-01-18 13:42:00,
2013-01-18 05:52:00,18.0,8.0,-100.00,NNE,31,3.0,4.0,65,-99.99,,,-99.99,,2013-01-18 13:52:00,
2013-01-18 06:03:00,17.0,8.0,-100.00,NE,34,3.0,4.0,66,-99.99,,,-99.99,,2013-01-18 14:03:00,
2013-01-18 06:12:00,17.0,8.0,-100.00,NNE,30,3.0,5.0,66,-99.99,,,-99.99,,2013-01-18 14:12:00,
2013-01-18 06:22:00,17.0,7.0,-100.00,NNE,30,3.0,5.0,65,-99.99,,,-99.99,,2013-01-18 14:22:00,
2013-01-18 06:33:00,17.0,7.0,-100.00,NNE,32,3.0,3.0,64,-99.99,,,-99.99,,2013-01-18 14:33:00,
2013-01-18 06:42:00,17.0,7.0,-100.00,NNE,25,3.0,5.0,64,-99.99,,,-99.99,,2013-01-18 14:42:00,
2013-01-18 06:53:00,17.0,7.0,-100.00,NNE,32,3.0,5.0,64,-99.99,,,-99.99,,2013-01-18 14:53:00,
2013-01-18 07:02:00,17.0,7.0,-100.00,NE,34,2.0,4.0,65,-99.99,,,-99.99,,2013-01-18 15:02:00,
2013-01-18 07:12:00,17.0,7.0,-100.00,NNE,30,3.0,4.0,65,-99.99,,,-99.99,,2013-01-18 15:12:00,
2013-01-18 07:22:00,17.0,8.0,-100.00,NE,40,2.0,5.0,66,-99.99,,,-99.99,,2013-01-18 15:22:00,
2013-01-18 07:33:00,16.0,6.0,-100.00,NE,35,1.0,4.0,65,-99.99,,,-99.99,,2013-01-18 15:33:00,
2013-01-18 07:42:00,17.0,8.0,-100.00,NE,47,1.0,4.0,67,-99.99,,,-99.99,,2013-01-18 15:42:00,
2013-01-18 07:53:00,17.0,8.0,-100.00,NE,35,2.0,4.0,66,-99.99,,,-99.99,,2013-01-18 15:53:00,
2013-01-18 08:02:00,16.0,7.0,-100.00,NNE,31,3.0,4.0,67,-99.99,,,-99.99,,2013-01-18 16:02:00,
2013-01-18 08:12:00,17.0,7.0,-100.00,NE,35,3.0,5.0,66,-99.99,,,-99.99,,2013-01-18 16:12:00,
2013-01-18 08:23:00,17.0,8.0,-100.00,NE,35,2.0,4.0,66,-99.99,,,-99.99,,2013-01-18 16:23:00,
2013-01-18 08:32:00,17.0,7.0,-100.00,NNE,32,3.0,5.0,65,-99.99,,,-99.99,,2013-01-18 16:32:00,
2013-01-18 08:42:00,17.0,7.0,-100.00,NE,38,3.0,5.0,64,-99.99,,,-99.99,,2013-01-18 16:42:00,
2013-01-18 08:52:00,17.0,7.0,-100.00,NE,38,3.0,5.0,63,-99.99,,,-99.99,,2013-01-18 16:52:00,
2013-01-18 09:02:00,18.0,9.0,-100.00,NE,38,2.0,4.0,66,-99.99,,,-99.99,,2013-01-18 17:02:00,
2013-01-18 09:12:00,20.0,11.0,-100.00,NE,41,2.0,3.0,66,-99.99,,,-99.99,,2013-01-18 17:12:00,
2013-01-18 09:22:00,22.0,12.0,-100.00,NE,52,2.0,3.0,64,-99.99,,,-99.99,,2013-01-18 17:22:00,
2013-01-18 09:33:00,24.0,12.0,-100.00,ENE,61,2.0,4.0,60,-99.99,,,-99.99,,2013-01-18 17:33:00,
2013-01-18 09:42:00,25.0,13.0,-100.00,ENE,61,1.0,3.0,59,-99.99,,,-99.99,,2013-01-18 17:42:00,
2013-01-18 09:53:00,27.0,13.0,-100.00,ENE,64,1.0,2.0,55,-99.99,,,-99.99,,2013-01-18 17:53:00,
2013-01-18 10:03:00,28.0,14.0,-100.00,ENE,75,0.0,2.0,55,-99.99,,,-99.99,,2013-01-18 18:03:00,
2013-01-18 10:12:00,30.0,15.0,-100.00,East,92,0.0,1.0,53,-99.99,,,-99.99,,2013-01-18 18:12:00,
2013-01-18 10:23:00,31.0,16.0,-100.00,North,-999,0.0,0.0,54,-99.99,,,-99.99,,2013-01-18 18:23:00,
2013-01-18 10:33:00,32.0,17.0,-100.00,SW,217,1.0,2.0,53,-99.99,,,-99.99,,2013-01-18 18:33:00,
2013-01-18 10:43:00,33.0,16.0,-100.00,SSW,203,2.0,3.0,49,-99.99,,,-99.99,,2013-01-18 18:43:00,
2013-01-18 10:52:00,33.0,15.0,-100.00,SSW,205,2.0,3.0,47,-99.99,,,-99.99,,2013-01-18 18:52:00,
2013-01-18 11:02:00,33.0,16.0,-100.00,SW,217,1.0,4.0,50,-99.99,,,-99.99,,2013-01-18 19:02:00,
2013-01-18 11:12:00,34.0,18.0,-100.00,WSW,250,1.0,2.0,52,-99.99,,,-99.99,,2013-01-18 19:12:00,
2013-01-18 11:22:00,34.0,18.0,-100.00,WSW,250,1.0,2.0,52,-99.99,,,-99.99,,2013-01-18 19:22:00,
2013-01-18 11:33:00,35.0,19.0,-100.00,SSW,213,2.0,4.0,51,-99.99,,,-99.99,,2013-01-18 19:33:00,
2013-01-18 11:42:00,34.0,20.0,-100.00,WSW,241,3.0,5.0,57,-99.99,,,-99.99,,2013-01-18 19:42:00,
2013-01-18 11:53:00,35.0,18.0,-100.00,WSW,247,2.0,5.0,50,-99.99,,,-99.99,,2013-01-18 19:53:00,
2013-01-18 12:02:00,37.0,18.0,-100.00,South,185,2.0,5.0,45,-99.99,,,-99.99,,2013-01-18 20:02:00,
2013-01-18 12:12:00,37.0,15.0,-100.00,South,181,2.0,4.0,40,-99.99,,,-99.99,,2013-01-18 20:12:00,
2013-01-18 12:22:00,37.0,17.0,-100.00,South,185,2.0,4.0,44,-99.99,,,-99.99,,2013-01-18 20:22:00,
2013-01-18 12:33:00,37.0,17.0,-100.00,South,185,2.0,4.0,44,-99.99,,,-99.99,,2013-01-18 20:33:00,
2013-01-18 12:42:00,38.0,16.0,-100.00,South,189,2.0,4.0,40,-99.99,,,-99.99,,2013-01-18 20:42:00,
2013-01-18 12:53:00,38.0,17.0,-100.00,South,184,3.0,5.0,42,-99.99,,,-99.99,,2013-01-18 20:53:00,
2013-01-18 13:03:00,38.0,18.0,-100.00,South,175,3.0,5.0,43,-99.99,,,-99.99,,2013-01-18 21:03:00,
2013-01-18 13:12:00,39.0,16.0,-100.00,SSE,165,2.0,4.0,39,-99.99,,,-99.99,,2013-01-18 21:12:00,
2013-01-18 13:22:00,41.0,17.0,-100.00,South,171,2.0,4.0,38,-99.99,,,-99.99,,2013-01-18 21:22:00,
2013-01-18 13:33:00,41.0,16.0,-100.00,South,186,2.0,4.0,37,-99.99,,,-99.99,,2013-01-18 21:33:00,
2013-01-18 13:42:00,41.0,16.0,-100.00,South,186,2.0,4.0,37,-99.99,,,-99.99,,2013-01-18 21:42:00,
2013-01-18 13:52:00,40.0,17.0,-100.00,SSW,209,2.0,4.0,40,-99.99,,,-99.99,,2013-01-18 21:52:00,
2013-01-18 14:02:00,40.0,17.0,-100.00,SSW,209,2.0,4.0,40,-99.99,,,-99.99,,2013-01-18 22:02:00,
2013-01-18 14:12:00,40.0,16.0,-100.00,SSW,205,2.0,5.0,38,-99.99,,,-99.99,,2013-01-18 22:12:00,
2013-01-18 14:22:00,40.0,16.0,-100.00,SSW,205,2.0,5.0,38,-99.99,,,-99.99,,2013-01-18 22:22:00,
2013-01-18 14:32:00,40.0,16.0,-100.00,SSW,205,2.0,5.0,38,-99.99,,,-99.99,,2013-01-18 22:32:00,
2013-01-18 14:42:00,40.0,16.0,-100.00,SSW,205,2.0,5.0,38,-99.99,,,-99.99,,2013-01-18 22:42:00,
2013-01-18 14:53:00,42.0,14.0,-100.00,SSE,161,2.0,6.0,31,-99.99,,,-99.99,,2013-01-18 22:53:00,
2013-01-18 15:02:00,42.0,14.0,-100.00,SSE,161,2.0,6.0,31,-99.99,,,-99.99,,2013-01-18 23:02:00,
2013-01-18 15:12:00,43.0,17.0,-100.00,South,184,3.0,6.0,34,-99.99,,,-99.99,,2013-01-18 23:12:00,
2013-01-18 15:22:00,43.0,17.0,-100.00,South,184,3.0,6.0,34,-99.99,,,-99.99,,2013-01-18 23:22:00,
2013-01-18 15:32:00,43.0,18.0,-100.00,South,171,2.0,5.0,35,-99.99,,,-99.99,,2013-01-18 23:32:00,
2013-01-18 15:42:00,43.0,18.0,-100.00,South,171,2.0,5.0,35,-99.99,,,-99.99,,2013-01-18 23:42:00,
2013-01-18 15:53:00,41.0,20.0,-100.00,SSE,162,3.0,6.0,41,-99.99,,,-99.99,,2013-01-18 23:53:00,
2013-01-18 16:02:00,41.0,20.0,-100.00,SSE,162,3.0,6.0,41,-99.99,,,-99.99,,2013-01-19 00:02:00,
2013-01-18 16:12:00,41.0,20.0,-100.00,SSE,162,3.0,6.0,41,-99.99,,,-99.99,,2013-01-19 00:12:00,
2013-01-18 16:22:00,41.0,20.0,-100.00,SSE,162,3.0,6.0,41,-99.99,,,-99.99,,2013-01-19 00:22:00,
2013-01-18 16:43:00,43.0,15.0,-100.00,ESE,102,3.0,7.0,32,-99.99,,,-99.99,,2013-01-19 00:43:00,
2013-01-18 16:53:00,43.0,16.0,-100.00,East,90,3.0,9.0,33,-99.99,,,-99.99,,2013-01-19 00:53:00,
2013-01-18 17:02:00,42.0,6.0,-100.00,East,80,4.0,11.0,22,-99.99,,,-99.99,,2013-01-19 01:02:00,
2013-01-18 17:12:00,40.0,6.0,-100.00,East,86,4.0,11.0,24,-99.99,,,-99.99,,2013-01-19 01:12:00,
2013-01-18 17:22:00,39.0,5.0,-100.00,ESE,103,2.0,8.0,24,-99.99,,,-99.99,,2013-01-19 01:22:00,
2013-01-18 17:32:00,37.0,5.0,-100.00,ENE,75,4.0,11.0,26,-99.99,,,-99.99,,2013-01-19 01:32:00,
2013-01-18 17:42:00,37.0,6.0,-100.00,East,93,4.0,12.0,27,-99.99,,,-99.99,,2013-01-19 01:42:00,
2013-01-18 17:52:00,36.0,7.0,-100.00,East,96,3.0,9.0,29,-99.99,,,-99.99,,2013-01-19 01:52:00,
2013-01-18 18:02:00,36.0,7.0,-100.00,East,100,3.0,11.0,29,-99.99,,,-99.99,,2013-01-19 02:02:00,
2013-01-18 18:12:00,35.0,6.0,-100.00,ENE,64,6.0,16.0,29,-99.99,,,-99.99,,2013-01-19 02:12:00,
2013-01-18 18:22:00,35.0,7.0,-100.00,ENE,66,5.0,16.0,30,-99.99,,,-99.99,,2013-01-19 02:22:00,
2013-01-18 18:32:00,36.0,7.0,-100.00,NE,44,5.0,14.0,29,-99.99,,,-99.99,,2013-01-19 02:32:00,
2013-01-18 18:42:00,35.0,7.0,-100.00,NE,45,6.0,15.0,30,-99.99,,,-99.99,,2013-01-19 02:42:00,
2013-01-18 18:52:00,35.0,7.0,-100.00,NE,48,5.0,12.0,30,-99.99,,,-99.99,,2013-01-19 02:52:00,
2013-01-18 19:02:00,35.0,7.0,-100.00,NE,37,5.0,11.0,30,-99.99,,,-99.99,,2013-01-19 03:02:00,
2013-01-18 19:12:00,35.0,8.0,-100.00,NE,42,5.0,13.0,32,-99.99,,,-99.99,,2013-01-19 03:12:00,
2013-01-18 19:22:00,35.0,7.0,-100.00,NE,47,5.0,15.0,31,-99.99,,,-99.99,,2013-01-19 03:22:00,
2013-01-18 19:32:00,35.0,7.0,-100.00,NE,47,5.0,15.0,31,-99.99,,,-99.99,,2013-01-19 03:32:00,
2013-01-18 19:42:00,35.0,7.0,-100.00,NE,49,5.0,13.0,31,-99.99,,,-99.99,,2013-01-19 03:42:00,
2013-01-18 19:50:00,32.0,10.0,-100.00,East,88,1.0,5.0,40,-99.99,,,-99.99,,2013-01-19 03:50:00,
2013-01-18 19:52:00,34.0,8.0,-100.00,NE,49,4.0,11.0,32,-99.99,,,-99.99,,2013-01-19 03:52:00,
2013-01-18 20:02:00,34.0,7.0,-100.00,NE,52,3.0,11.0,31,-99.99,,,-99.99,,2013-01-19 04:02:00,
2013-01-18 20:12:00,33.0,6.0,-100.00,ENE,73,2.0,5.0,31,-99.99,,,-99.99,,2013-01-19 04:12:00,
2013-01-18 20:22:00,32.0,10.0,-100.00,East,88,1.0,5.0,40,-99.99,,,-99.99,,2013-01-19 04:22:00,
2013-01-18 20:32:00,32.0,10.0,-100.00,East,88,1.0,5.0,40,-99.99,,,-99.99,,2013-01-19 04:32:00,
2013-01-18 20:42:00,32.0,10.0,-100.00,East,88,1.0,5.0,40,-99.99,,,-99.99,,2013-01-19 04:42:00,
2013-01-18 21:03:00,30.0,7.0,-100.00,SW,223,2.0,7.0,37,-99.99,,,-99.99,,2013-01-19 05:03:00,
2013-01-18 21:12:00,30.0,10.0,-100.00,ESE,113,2.0,10.0,43,-99.99,,,-99.99,,2013-01-19 05:12:00,
2013-01-18 21:22:00,31.0,7.0,-100.00,East,99,3.0,7.0,35,-99.99,,,-99.99,,2013-01-19 05:22:00,
2013-01-18 21:32:00,32.0,7.0,-100.00,ENE,64,2.0,7.0,34,-99.99,,,-99.99,,2013-01-19 05:32:00,
2013-01-18 21:42:00,32.0,9.0,-100.00,North,359,2.0,12.0,37,-99.99,,,-99.99,,2013-01-19 05:42:00,
2013-01-18 21:52:00,32.0,6.0,-100.00,ESE,107,2.0,11.0,34,-99.99,,,-99.99,,2013-01-19 05:52:00,
2013-01-18 22:02:00,32.0,7.0,-100.00,NE,52,4.0,11.0,35,-99.99,,,-99.99,,2013-01-19 06:02:00,
2013-01-18 22:12:00,30.0,10.0,-100.00,East,92,2.0,7.0,43,-99.99,,,-99.99,,2013-01-19 06:12:00,
2013-01-18 22:22:00,27.0,10.0,-100.00,SE,141,2.0,5.0,48,-99.99,,,-99.99,,2013-01-19 06:22:00,
2013-01-18 22:32:00,27.0,11.0,-100.00,ESE,112,2.0,5.0,49,-99.99,,,-99.99,,2013-01-19 06:32:00,
2013-01-18 22:42:00,26.0,10.0,-100.00,ESE,104,1.0,3.0,50,-99.99,,,-99.99,,2013-01-19 06:42:00,
2013-01-18 22:52:00,25.0,11.0,-100.00,North,360,0.0,2.0,54,-99.99,,,-99.99,,2013-01-19 06:52:00,
2013-01-18 23:02:00,25.0,12.0,-100.00,ENE,68,0.0,2.0,57,-99.99,,,-99.99,,2013-01-19 07:02:00,
2013-01-18 23:12:00,25.0,11.0,-100.00,NNE,13,1.0,3.0,55,-99.99,,,-99.99,,2013-01-19 07:12:00,
2013-01-18 23:22:00,25.0,13.0,-100.00,NE,49,1.0,3.0,59,-99.99,,,-99.99,,2013-01-19 07:22:00,
2013-01-18 23:32:00,24.0,12.0,-100.00,ENE,68,1.0,8.0,59,-99.99,,,-99.99,,2013-01-19 07:32:00,
2013-01-18 23:42:00,24.0,11.0,-100.00,East,99,0.0,3.0,58,-99.99,,,-99.99,,2013-01-19 07:42:00,
2013-01-18 23:52:00,24.0,14.0,-100.00,NE,42,2.0,5.0,64,-99.99,,,-99.99,,2013-01-19 07:52:00,